Content
SEND FEEDBACK

Daily
Averages
Monthly
Summary
United States of America

GLENOVER, NEBRASKA


Home > North America > United States > Nebraska
Elevation: 1230 feet     Latitude: 40 16N     Longitude: 096 44W

WEATHER
 
SELECT A DAY
Number of Records: 435,998;   Date Range: 7/27/95 - 10/23/14
 
SHARE

PRINT THIS DATA

[ ← Previous Day ]
WEATHER ALMANAC - JANUARY 31, 2013
[ Next Day → ]
[ °C ]   °F
Weather ElementAverageHighLow
Temperature11 °F18.9 °F (2:35 am)-4.2 °F (10:15 pm)
Dewpoint2.6 °F13.3 °F (2:15 am)-9.8 °F (10:15 pm)
Humidity69.5 %87 % (1:35 am)53 % (4:15 pm)
Barometer30.20 in30.43 in (11:55 pm)29.93 in (12:35 am)
Wind Speed11.7 mph27.6 mph (10:55 am)
Wind Gust33.4 mph (10:55 am)
Weather ElementAverage
Visibility9.3 mi
Wind DirectionWNW (281.5 °)

Weather ElementTotal
Precipitation---
Heating Degree Days57.7 (Base 65)
Averaged from 71 records on January 31, 2013
WEATHER CONDITIONS BREAKOUT
WIND DIRECTION BREAKOUT
WEATHER BY HOUR - JANUARY 31, 2013
[ °C ]   °F
Local TimeTemperatureDewpointHumidityBarometerVisibilityWind DirectionWind SpeedGust SpeedPrecipitationEventsConditions
12:35 AM15.3 °F11.7 °F86 %29.93 in10.0 miCalmMostly Cloudy
12:55 AM16.0 °F12.4 °F86 %29.93 in10.0 miCalmOvercast
1:15 AM15.8 °F12.2 °F86 %29.93 in10.0 miNorth (10°)3.5 mphMostly Cloudy
1:35 AM14.5 °F11.3 °F87 %29.93 in10.0 miCalmMostly Cloudy
1:55 AM17.1 °F13.1 °F84 %29.94 in10.0 miNorth (10°)8.1 mphOvercast
2:15 AM18.7 °F13.3 °F79 %29.94 in10.0 miNNE (20°)4.6 mphOvercast
2:35 AM18.9 °F12.9 °F78 %29.95 in10.0 miNorth (360°)5.8 mphOvercast
2:55 AM17.4 °F11.7 °F78 %29.95 in10.0 miNorth (10°)5.8 mphMostly Cloudy
3:15 AM17.1 °F11.3 °F78 %29.95 in10.0 miNorth (360°)8.1 mphScattered Clouds
3:35 AM16.9 °F11.7 °F80 %29.96 in10.0 miNorth (360°)8.1 mphMostly Cloudy
3:55 AM16.7 °F11.5 °F80 %29.97 in10.0 miNorth (350°)6.9 mphMostly Cloudy
4:15 AM16.5 °F11.8 °F82 %29.97 in10.0 miNNW (340°)6.9 mphOvercast
4:35 AM16.7 °F11.5 °F80 %29.98 in10.0 miNorth (350°)13.8 mphOvercast
4:55 AM17.1 °F10.4 °F75 %29.99 in10.0 miNNW (340°)13.8 mphOvercast
5:15 AM16.7 °F10.4 °F76 %30.00 in10.0 miNNW (340°)8.1 mphOvercast
5:35 AM15.3 °F7.2 °F70 %30.03 in10.0 miNNW (340°)16.1 mphMostly Cloudy
5:55 AM14.0 °F6.8 °F73 %30.04 in10.0 miNorth (350°)11.5 mphMostly Cloudy
6:15 AM13.5 °F5.7 °F71 %30.04 in10.0 miNorth (350°)17.3 mph21.9 mphScattered Clouds
6:35 AM14.0 °F6.8 °F73 %30.05 in10.0 miNorth (350°)9.2 mphMostly Cloudy
6:55 AM13.5 °F5.9 °F72 %30.06 in10.0 miNNW (330°)8.1 mphOvercast
7:15 AM13.5 °F5.9 °F72 %30.07 in10.0 miNNW (330°)9.2 mphOvercast
7:35 AM12.9 °F5.7 °F73 %30.08 in10.0 miNNW (330°)10.4 mphOvercast
7:55 AM12.7 °F5.7 °F74 %30.08 in10.0 miNNW (330°)8.1 mphOvercast
8:15 AM12.9 °F5.9 °F74 %30.10 in10.0 miNNW (330°)10.4 mphOvercast
8:35 AM13.5 °F6.6 °F74 %30.11 in10.0 miNW (320°)12.7 mphOvercast
8:55 AM14.0 °F7.0 °F74 %30.12 in10.0 miNNW (330°)13.8 mphOvercast
9:15 AM14.5 °F7.2 °F73 %30.15 in10.0 miNNW (340°)19.6 mph23.0 mphOvercast
9:35 AM14.2 °F6.4 °F71 %30.16 in7.0 miNNW (330°)25.3 mphOvercast
9:55 AM14.4 °F6.8 °F72 %30.18 in10.0 miNNW (330°)19.6 mph27.6 mphOvercast
10:15 AM14.5 °F5.7 °F68 %30.20 in10.0 miNNW (330°)24.2 mph27.6 mphOvercast
10:35 AM14.2 °F3.9 °F64 %30.21 in5.0 miNNW (330°)23.0 mph32.2 mphHaze
10:55 AM12.9 °F2.7 °F64 %30.24 in5.0 miNNW (340°)27.6 mph33.4 mphHaze
11:15 AM13.5 °F3.6 °F65 %30.25 in7.0 miNNW (330°)25.3 mph28.8 mphScattered Clouds
11:35 AM12.6 °F2.1 °F63 %30.26 in5.0 miNNW (340°)21.9 mphHaze
11:55 AM12.7 °F2.1 °F63 %30.27 in3.0 miNNW (330°)27.6 mphHaze
12:15 PM12.0 °F0.9 °F61 %30.27 in5.0 miNW (320°)26.5 mphHaze
12:35 PM12.7 °F1.4 °F61 %30.28 in5.0 miNNW (330°)26.5 mph31.1 mphHaze
12:55 PM13.1 °F1.4 °F60 %30.29 in7.0 miNNW (330°)24.2 mph29.9 mphClear
1:15 PM13.1 °F1.6 °F60 %30.29 in7.0 miNW (320°)19.6 mph23.0 mphClear
1:35 PM13.5 °F1.0 °F58 %30.29 in7.0 miNNW (330°)23.0 mphClear
1:55 PM13.5 °F0.9 °F57 %30.29 in10.0 miNNW (340°)19.6 mph25.3 mphClear
2:15 PM13.8 °F1.6 °F58 %30.29 in10.0 miNNW (330°)18.4 mph23.0 mphClear
2:35 PM14.0 °F1.2 °F57 %30.30 in10.0 miNNW (330°)20.7 mphClear
2:55 PM14.4 °F1.6 °F57 %30.30 in10.0 miNNW (340°)18.4 mph23.0 mphClear
3:15 PM14.4 °F1.2 °F56 %30.30 in10.0 miNNW (340°)18.4 mphClear
3:35 PM14.2 °F0.9 °F56 %30.31 in10.0 miNNW (330°)17.3 mphClear
3:55 PM14.2 °F0.3 °F54 %30.32 in10.0 miNNW (330°)18.4 mph24.2 mphClear
4:15 PM14.0 °F-0.4 °F53 %30.32 in10.0 miNNW (340°)17.3 mph20.7 mphClear
4:35 PM13.6 °F-0.8 °F53 %30.33 in10.0 miNNW (330°)13.8 mphClear
4:55 PM12.9 °F-1.5 °F53 %30.33 in10.0 miNNW (340°)13.8 mphClear
5:15 PM11.8 °F-1.3 °F56 %30.33 in10.0 miNNW (340°)11.5 mphClear
5:35 PM10.4 °F-1.7 °F58 %30.33 in10.0 miNNW (340°)9.2 mphClear
5:55 PM8.4 °F-2.7 °F61 %30.34 in10.0 miNNW (340°)6.9 mphClear
6:15 PM5.5 °F-3.6 °F66 %30.34 in10.0 miNorth (350°)9.2 mphClear
6:35 PM4.6 °F-4.5 °F66 %30.34 in10.0 miNNW (340°)5.8 mphClear
6:55 PM3.6 °F-5.1 °F67 %30.35 in10.0 miNNW (340°)4.6 mphClear
7:15 PM1.9 °F-6.2 °F69 %30.36 in10.0 miNW (310°)3.5 mphClear
7:35 PM3.7 °F-5.6 °F65 %30.36 in10.0 miNW (320°)4.6 mphClear
7:55 PM2.3 °F-5.1 °F71 %30.37 in10.0 miNW (310°)3.5 mphClear
8:15 PM0.5 °F-7.1 °F70 %30.37 in10.0 miNW (310°)3.5 mphClear
8:35 PM3.7 °F-6.0 °F64 %30.37 in10.0 miNW (320°)5.8 mphClear
8:55 PM2.5 °F-6.0 °F68 %30.38 in10.0 miCalmClear
9:15 PM-0.4 °F-7.4 °F72 %30.40 in10.0 miWSW (240°)5.8 mphClear
9:35 PM-0.4 °F-6.0 °F77 %30.41 in10.0 miWNW (300°)3.5 mphClear
9:55 PM-0.4 °F-6.9 °F74 %30.42 in10.0 miNW (320°)5.8 mphClear
10:15 PM-4.2 °F-9.8 °F77 %30.42 in10.0 miWest (280°)3.5 mphClear
10:35 PM-2.7 °F-8.5 °F76 %30.42 in10.0 miCalmClear
10:55 PM-0.2 °F-5.8 °F77 %30.42 in10.0 miWSW (240°)3.5 mphClear
11:15 PM0.1 °F-6.5 °F74 %30.42 in10.0 miWSW (250°)5.8 mphScattered Clouds
11:35 PM1.2 °F-5.4 °F74 %30.42 in10.0 miSW (220°)4.6 mphOvercast
11:55 PM1.4 °F-4.0 °F78 %30.43 in10.0 miCalmOvercast
Hourly data recorded from KBIE, located miles away from Glenover, Nebraska







STORIES FROM OUR PARTNERS